TimeCDT,TemperatureF,Dew PointF,Humidity,Sea Level PressureIn,VisibilityMPH,Wind Direction,Wind SpeedMPH,Gust SpeedMPH,PrecipitationIn,Events,Conditions,WindDirDegrees,DateUTC
12:53 AM,78.1,64.9,64,29.78,10.0,SW,15.0,29.9,N/A,,Clear,220,2013-08-02 05:53:00
1:37 AM,78.8,64.4,61,29.97,10.0,North,11.5,38.0,N/A,,Partly Cloudy,10,2013-08-02 06:37:00
1:53 AM,75.0,66.0,73,29.91,10.0,NNE,18.4,27.6,N/A,,Mostly Cloudy,20,2013-08-02 06:53:00
2:53 AM,66.9,63.0,87,29.90,10.0,East,17.3,-,N/A,,Partly Cloudy,80,2013-08-02 07:53:00
3:53 AM,64.9,62.1,90,29.89,10.0,East,13.8,24.2,N/A,,Clear,90,2013-08-02 08:53:00
4:53 AM,64.9,-9999,N/A,29.87,10.0,ESE,11.5,-,N/A,,Clear,110,2013-08-02 09:53:00
5:53 AM,66.0,-9999,N/A,29.85,10.0,ESE,9.2,17.3,N/A,,Clear,120,2013-08-02 10:53:00
6:53 AM,66.0,-9999,N/A,29.85,10.0,SE,15.0,-,N/A,,Clear,140,2013-08-02 11:53:00
7:53 AM,66.9,-9999,N/A,29.84,10.0,SSE,9.2,17.3,N/A,,Clear,160,2013-08-02 12:53:00
8:53 AM,72.0,-9999,N/A,29.83,10.0,SE,11.5,-,N/A,,Clear,140,2013-08-02 13:53:00
9:53 AM,77.0,63.0,62,29.80,10.0,SSE,13.8,21.9,N/A,,Clear,160,2013-08-02 14:53:00
10:53 AM,79.0,66.0,64,29.81,10.0,South,9.2,-,N/A,,Clear,170,2013-08-02 15:53:00
11:53 AM,82.0,68.0,62,29.81,10.0,South,6.9,-,N/A,,Clear,190,2013-08-02 16:53:00
12:53 PM,84.9,68.0,57,29.81,10.0,Variable,4.6,-,N/A,,Clear,0,2013-08-02 17:53:00
1:53 PM,86.0,68.0,55,29.80,10.0,Calm,Calm,-,N/A,,Clear,0,2013-08-02 18:53:00
2:53 PM,87.1,69.1,55,29.81,10.0,East,5.8,-,N/A,,Clear,90,2013-08-02 19:53:00
3:53 PM,88.0,69.1,53,29.81,10.0,ESE,5.8,-,N/A,,Partly Cloudy,110,2013-08-02 20:53:00
4:53 PM,89.1,69.1,52,29.81,10.0,East,9.2,-,N/A,,Scattered Clouds,100,2013-08-02 21:53:00
5:53 PM,89.1,69.1,52,29.81,10.0,East,10.4,-,N/A,,Clear,90,2013-08-02 22:53:00
6:53 PM,88.0,70.0,55,29.82,10.0,East,16.1,-,N/A,,Partly Cloudy,80,2013-08-02 23:53:00
7:53 PM,82.9,71.1,67,29.85,10.0,East,16.1,23.0,N/A,,Clear,80,2013-08-03 00:53:00
8:53 PM,80.1,70.0,71,29.86,10.0,East,11.5,-,N/A,,Clear,80,2013-08-03 01:53:00
10:48 PM,77.0,69.8,78,29.98,10.0,East,13.8,-,N/A,,Overcast,80,2013-08-03 03:48:00
10:53 PM,77.0,70.0,79,29.91,10.0,East,13.8,-,N/A,,Overcast,80,2013-08-03 03:53:00
11:20 PM,75.2,69.8,83,29.99,10.0,East,12.7,-,N/A,,Scattered Clouds,80,2013-08-03 04:20:00
11:46 PM,75.2,69.8,83,30.00,10.0,East,16.1,-,N/A,,Mostly Cloudy,80,2013-08-03 04:46:00
11:53 PM,75.0,69.1,82,29.92,10.0,East,15.0,-,N/A,,Mostly Cloudy,90,2013-08-03 04:53:00